XNO1003 EGLL-EGPH

Flight info

Callsign XNO1003
Flight time 0h 52m
Altitude 32000
Route ULTIB T420 TNT UN57 POL UN601 RIBEL DCT INPIP
Aircraft B77W/H-SDE1E2E3FGHIJ2J3J4J5M1RWXY/LB1D1

Departure

Time 2026-05-06 20:16
Airport London Heathrow Airport (EGLL)

Arrival

Time 2026-05-06 21:09
Airport Edinburgh Airport (EGPH)
Time Latitude Longitude Altitude Speed Heading
2026-05-06 19:38 51.46848 -0.48233 94 ft 0 kts 89°
2026-05-06 20:01 51.46849 -0.48234 94 ft 2 kts 89°
2026-05-06 20:01 51.46849 -0.48274 91 ft 4 kts 90°
2026-05-06 20:02 51.46849 -0.48313 91 ft 4 kts 94°
2026-05-06 20:02 51.46856 -0.48346 92 ft 4 kts 152°
2026-05-06 20:02 51.46881 -0.48356 93 ft 4 kts 180°
2026-05-06 20:02 51.46896 -0.48356 92 ft 1 kts 179°
2026-05-06 20:03 51.46898 -0.48356 92 ft 0 kts 179°
2026-05-06 20:12 51.46875 -0.48355 92 ft 8 kts 179°
2026-05-06 20:12 51.46820 -0.48355 92 ft 8 kts 179°
2026-05-06 20:12 51.46764 -0.48371 93 ft 8 kts 206°
2026-05-06 20:13 51.46741 -0.48449 94 ft 9 kts 274°
2026-05-06 20:13 51.46743 -0.48563 93 ft 11 kts 268°
2026-05-06 20:13 51.46735 -0.48697 92 ft 12 kts 247°
2026-05-06 20:13 51.46658 -0.48743 94 ft 13 kts 184°
2026-05-06 20:14 51.46637 -0.48749 92 ft 0 kts 192°
2026-05-06 20:14 51.46633 -0.48750 92 ft 1 kts 193°
2026-05-06 20:14 51.46630 -0.48751 93 ft 3 kts 193°
2026-05-06 20:14 51.46573 -0.48778 92 ft 12 kts 192°
2026-05-06 20:15 51.46497 -0.48753 93 ft 10 kts 141°
2026-05-06 20:15 51.46480 -0.48660 93 ft 8 kts 89°
2026-05-06 20:15 51.46480 -0.48577 91 ft 0 kts 91°
2026-05-06 20:15 51.46480 -0.48568 91 ft 10 kts 91°
2026-05-06 20:16 51.46482 -0.47895 94 ft 111 kts 89°
2026-05-06 20:16 51.46484 -0.46157 148 ft 192 kts 88°
2026-05-06 20:16 51.46491 -0.43923 1028 ft 197 kts 87°
2026-05-06 20:16 51.46587 -0.41783 2199 ft 191 kts 72°
2026-05-06 20:17 51.47180 -0.39801 2579 ft 214 kts 52°
2026-05-06 20:17 51.48180 -0.37767 2945 ft 243 kts 49°
2026-05-06 20:17 51.49266 -0.35668 3794 ft 251 kts 49°
2026-05-06 20:17 51.50405 -0.33486 4736 ft 259 kts 49°
2026-05-06 20:18 51.51576 -0.31245 5566 ft 260 kts 49°
2026-05-06 20:18 51.52610 -0.28882 6001 ft 266 kts 63°
2026-05-06 20:18 51.53282 -0.26036 5996 ft 275 kts 70°
2026-05-06 20:18 51.53854 -0.23125 5997 ft 272 kts 71°
2026-05-06 20:19 51.54461 -0.20274 5981 ft 264 kts 62°
2026-05-06 20:19 51.55683 -0.18158 6005 ft 262 kts 25°
2026-05-06 20:19 51.57456 -0.17616 6034 ft 264 kts 350°
2026-05-06 20:19 51.59101 -0.18852 6024 ft 266 kts 318°
2026-05-06 20:20 51.60312 -0.21090 6047 ft 268 kts 303°
2026-05-06 20:20 51.61090 -0.23841 6025 ft 271 kts 286°
2026-05-06 20:20 51.61309 -0.26181 6026 ft 269 kts 271°
2026-05-06 20:20 51.61444 -0.29127 6012 ft 263 kts 287°
2026-05-06 20:21 51.62339 -0.31691 6033 ft 267 kts 315°
2026-05-06 20:21 51.63911 -0.33289 6037 ft 271 kts 343°
2026-05-06 20:21 51.65760 -0.33509 6027 ft 267 kts 10°
2026-05-06 20:21 51.67509 -0.32724 6024 ft 258 kts
2026-05-06 20:22 51.69283 -0.32907 6123 ft 263 kts 345°
2026-05-06 20:22 51.71049 -0.33794 6874 ft 269 kts 341°
2026-05-06 20:22 51.72780 -0.34881 7922 ft 268 kts 336°
2026-05-06 20:22 51.74463 -0.36179 8922 ft 268 kts 332°
2026-05-06 20:23 51.76118 -0.37636 9842 ft 274 kts 330°
2026-05-06 20:23 51.77788 -0.39199 10562 ft 283 kts 329°
2026-05-06 20:23 51.79563 -0.40893 10866 ft 311 kts 329°
2026-05-06 20:23 51.81508 -0.42770 11107 ft 340 kts 328°
2026-05-06 20:24 51.83599 -0.44810 11593 ft 360 kts 328°
2026-05-06 20:24 51.85775 -0.46941 12486 ft 368 kts 328°
2026-05-06 20:24 51.87986 -0.49107 13535 ft 373 kts 328°
2026-05-06 20:24 51.90223 -0.51298 14486 ft 378 kts 328°
2026-05-06 20:25 51.92490 -0.53520 15415 ft 384 kts 328°
2026-05-06 20:25 51.94796 -0.55781 16305 ft 390 kts 328°
2026-05-06 20:25 51.97105 -0.58037 17234 ft 395 kts 328°
2026-05-06 20:25 51.99484 -0.60355 18154 ft 401 kts 328°
2026-05-06 20:26 52.01888 -0.62701 18954 ft 407 kts 328°
2026-05-06 20:26 52.04329 -0.65087 19739 ft 411 kts 328°
2026-05-06 20:26 52.06792 -0.67500 20527 ft 416 kts 328°
2026-05-06 20:26 52.09289 -0.69948 21323 ft 420 kts 328°
2026-05-06 20:27 52.11805 -0.72419 22095 ft 425 kts 328°
2026-05-06 20:27 52.14353 -0.74928 22838 ft 430 kts 327°
2026-05-06 20:27 52.16928 -0.77478 23561 ft 435 kts 327°
2026-05-06 20:27 52.19527 -0.80058 24171 ft 440 kts 327°
2026-05-06 20:28 52.22155 -0.82668 24796 ft 443 kts 327°
2026-05-06 20:28 52.24793 -0.85290 25439 ft 446 kts 327°
2026-05-06 20:28 52.27455 -0.87933 26016 ft 449 kts 327°
2026-05-06 20:28 52.30135 -0.90590 26639 ft 452 kts 327°
2026-05-06 20:29 52.32836 -0.93270 27224 ft 455 kts 327°
2026-05-06 20:29 52.35559 -0.95975 27757 ft 459 kts 327°
2026-05-06 20:29 52.38267 -0.98670 28254 ft 463 kts 327°
2026-05-06 20:29 52.41022 -1.01418 28776 ft 466 kts 327°
2026-05-06 20:30 52.43799 -1.04192 29216 ft 469 kts 327°
2026-05-06 20:30 52.49443 -1.09843 30079 ft 475 kts 327°
2026-05-06 20:30 52.52255 -1.12687 30494 ft 475 kts 327°
2026-05-06 20:31 52.55029 -1.15507 31018 ft 473 kts 327°
2026-05-06 20:31 52.57817 -1.18340 31510 ft 471 kts 327°
2026-05-06 20:31 52.60609 -1.21168 31963 ft 471 kts 328°
2026-05-06 20:32 52.66229 -1.26862 31997 ft 474 kts 327°
2026-05-06 20:32 52.71808 -1.32535 31994 ft 469 kts 327°
2026-05-06 20:33 52.77362 -1.38190 32058 ft 469 kts 328°
2026-05-06 20:33 52.82923 -1.43866 32049 ft 469 kts 328°
2026-05-06 20:34 52.88466 -1.49543 32050 ft 468 kts 328°
2026-05-06 20:34 52.93977 -1.55205 32050 ft 468 kts 328°
2026-05-06 20:35 52.99508 -1.60905 32052 ft 468 kts 328°
2026-05-06 20:35 53.05077 -1.66475 32050 ft 466 kts 333°
2026-05-06 20:36 53.11049 -1.70640 32052 ft 465 kts 340°
2026-05-06 20:36 53.17128 -1.74313 32054 ft 464 kts 340°
2026-05-06 20:37 53.23196 -1.78028 32053 ft 464 kts 340°
2026-05-06 20:37 53.29204 -1.81760 32056 ft 463 kts 340°
2026-05-06 20:38 53.35244 -1.85539 32048 ft 463 kts 339°
2026-05-06 20:38 53.41288 -1.89331 32051 ft 462 kts 339°
2026-05-06 20:39 53.47309 -1.93117 32044 ft 462 kts 339°
2026-05-06 20:39 53.53330 -1.96915 32053 ft 462 kts 339°
2026-05-06 20:40 53.59311 -2.00700 32046 ft 462 kts 339°
2026-05-06 20:40 53.65338 -2.04525 32049 ft 462 kts 339°
2026-05-06 20:41 53.70352 -2.07716 32049 ft 463 kts 339°
2026-05-06 20:41 53.76340 -2.11575 32040 ft 461 kts 339°
2026-05-06 20:42 53.82264 -2.15695 32042 ft 459 kts 338°
2026-05-06 20:42 53.88165 -2.19787 32040 ft 457 kts 338°
2026-05-06 20:43 53.94069 -2.23825 32043 ft 457 kts 338°
2026-05-06 20:43 53.99956 -2.27863 32052 ft 456 kts 338°
2026-05-06 20:44 54.05844 -2.31920 32037 ft 456 kts 338°
2026-05-06 20:44 54.11679 -2.35948 32038 ft 455 kts 338°
2026-05-06 20:45 54.17550 -2.40014 32037 ft 455 kts 338°
2026-05-06 20:45 54.23419 -2.44091 32047 ft 455 kts 338°
2026-05-06 20:46 54.29279 -2.48176 32041 ft 454 kts 338°
2026-05-06 20:46 54.35128 -2.52265 32030 ft 453 kts 338°
2026-05-06 20:47 54.40962 -2.56356 32029 ft 453 kts 338°
2026-05-06 20:47 54.46783 -2.60451 31871 ft 450 kts 338°
2026-05-06 20:47 54.49677 -2.62492 31523 ft 451 kts 338°
2026-05-06 20:48 54.52587 -2.64547 31089 ft 453 kts 338°
2026-05-06 20:48 54.55515 -2.66617 30601 ft 457 kts 338°
2026-05-06 20:48 54.58466 -2.68708 30234 ft 457 kts 338°
2026-05-06 20:48 54.61364 -2.70764 29999 ft 455 kts 337°
2026-05-06 20:49 54.64293 -2.72845 29749 ft 453 kts 337°
2026-05-06 20:49 54.67194 -2.74910 29515 ft 450 kts 337°
2026-05-06 20:49 54.70085 -2.76970 29260 ft 449 kts 337°
2026-05-06 20:49 54.72968 -2.79029 29017 ft 448 kts 336°
2026-05-06 20:50 54.75854 -2.81092 28728 ft 446 kts 336°
2026-05-06 20:50 54.78720 -2.83145 27989 ft 445 kts 336°
2026-05-06 20:50 54.81568 -2.85188 27349 ft 440 kts 336°
2026-05-06 20:50 54.84383 -2.87209 26702 ft 435 kts 336°
2026-05-06 20:51 54.87166 -2.89210 26067 ft 430 kts 335°
2026-05-06 20:51 54.89921 -2.91198 25479 ft 426 kts 335°
2026-05-06 20:51 54.92640 -2.93166 24901 ft 421 kts 335°
2026-05-06 20:51 54.95332 -2.95119 24332 ft 417 kts 335°
2026-05-06 20:52 54.98000 -2.97058 23777 ft 414 kts 334°
2026-05-06 20:52 55.00661 -2.98996 23122 ft 413 kts 334°
2026-05-06 20:52 55.03299 -3.00919 22498 ft 410 kts 334°
2026-05-06 20:52 55.05918 -3.02830 21930 ft 405 kts 334°
2026-05-06 20:53 55.08507 -3.04722 21363 ft 402 kts 334°
2026-05-06 20:53 55.11056 -3.06587 20811 ft 402 kts 334°
2026-05-06 20:53 55.13632 -3.08475 20258 ft 402 kts 334°
2026-05-06 20:53 55.16243 -3.10390 19707 ft 401 kts 334°
2026-05-06 20:54 55.18773 -3.12243 19205 ft 398 kts 334°
2026-05-06 20:54 55.21312 -3.14105 18688 ft 394 kts 334°
2026-05-06 20:54 55.23834 -3.15960 18183 ft 393 kts 334°
2026-05-06 20:54 55.26355 -3.17816 17591 ft 393 kts 334°
2026-05-06 20:55 55.28865 -3.19666 17102 ft 390 kts 334°
2026-05-06 20:55 55.31357 -3.21503 16557 ft 386 kts 334°
2026-05-06 20:55 55.33825 -3.23325 16047 ft 382 kts 334°
2026-05-06 20:55 55.36261 -3.25128 15551 ft 378 kts 334°
2026-05-06 20:56 55.38675 -3.26918 15061 ft 374 kts 335°
2026-05-06 20:56 55.41063 -3.28689 14577 ft 368 kts 334°
2026-05-06 20:56 55.43337 -3.30376 14089 ft 342 kts 334°
2026-05-06 20:56 55.45457 -3.31949 13619 ft 320 kts 334°
2026-05-06 20:57 55.47448 -3.33428 13203 ft 300 kts 334°
2026-05-06 20:57 55.49286 -3.34795 12828 ft 282 kts 333°
2026-05-06 20:57 55.50918 -3.36413 12533 ft 258 kts 320°
2026-05-06 20:57 55.52302 -3.38418 12164 ft 258 kts 316°
2026-05-06 20:58 55.53635 -3.40468 11809 ft 248 kts 316°
2026-05-06 20:58 55.54909 -3.42412 11488 ft 241 kts 316°
2026-05-06 20:58 55.56192 -3.44347 11201 ft 243 kts 316°
2026-05-06 20:58 55.57490 -3.46287 10888 ft 245 kts 317°
2026-05-06 20:59 55.58798 -3.48224 10553 ft 245 kts 317°
2026-05-06 20:59 55.60110 -3.50151 10191 ft 246 kts 317°
2026-05-06 20:59 55.61443 -3.52110 9701 ft 252 kts 317°
2026-05-06 20:59 55.62813 -3.54123 9167 ft 258 kts 318°
2026-05-06 21:00 55.64212 -3.56184 8642 ft 264 kts 317°
2026-05-06 21:00 55.65605 -3.58338 8120 ft 265 kts 316°
2026-05-06 21:00 55.66962 -3.60470 7606 ft 256 kts 316°
2026-05-06 21:00 55.68269 -3.62518 7171 ft 246 kts 316°
2026-05-06 21:01 55.69548 -3.64503 6657 ft 243 kts 318°
2026-05-06 21:01 55.70844 -3.66400 6145 ft 240 kts 319°
2026-05-06 21:01 55.72132 -3.68274 5599 ft 238 kts 319°
2026-05-06 21:01 55.73409 -3.70136 5081 ft 236 kts 318°
2026-05-06 21:02 55.74658 -3.71965 4545 ft 235 kts 317°
2026-05-06 21:02 55.75901 -3.73831 4135 ft 234 kts 313°
2026-05-06 21:02 55.77092 -3.75923 4025 ft 242 kts 316°
2026-05-06 21:02 55.78452 -3.77547 3976 ft 232 kts 340°
2026-05-06 21:03 55.80012 -3.77656 3977 ft 224 kts 17°
2026-05-06 21:03 55.81290 -3.76195 3990 ft 219 kts 50°
2026-05-06 21:03 55.82252 -3.74099 4010 ft 221 kts 53°
2026-05-06 21:03 55.83169 -3.71887 4006 ft 223 kts 58°
2026-05-06 21:04 55.83994 -3.69602 3989 ft 213 kts 60°
2026-05-06 21:04 55.84731 -3.67456 3946 ft 197 kts 61°
2026-05-06 21:04 55.85433 -3.65390 3658 ft 192 kts 62°
2026-05-06 21:04 55.86105 -3.63416 3394 ft 185 kts 62°
2026-05-06 21:05 55.86754 -3.61509 3138 ft 175 kts 62°
2026-05-06 21:05 55.87380 -3.59667 2952 ft 174 kts 62°
2026-05-06 21:05 55.88003 -3.57835 2706 ft 172 kts 62°
2026-05-06 21:05 55.88626 -3.56005 2458 ft 172 kts 62°
2026-05-06 21:06 55.89242 -3.54193 2217 ft 170 kts 62°
2026-05-06 21:06 55.89854 -3.52392 1975 ft 170 kts 62°
2026-05-06 21:06 55.90465 -3.50596 1758 ft 168 kts 62°
2026-05-06 21:06 55.91059 -3.48847 1498 ft 160 kts 62°
2026-05-06 21:07 55.91615 -3.47212 1281 ft 150 kts 62°
2026-05-06 21:07 55.92147 -3.45644 1066 ft 146 kts 62°
2026-05-06 21:07 55.92669 -3.44105 856 ft 145 kts 62°
2026-05-06 21:07 55.93193 -3.42563 653 ft 145 kts 62°
2026-05-06 21:08 55.93707 -3.41071 433 ft 142 kts 62°
2026-05-06 21:08 55.94215 -3.39564 240 ft 142 kts 61°
2026-05-06 21:08 55.94726 -3.38064 120 ft 138 kts 61°
2026-05-06 21:08 55.95178 -3.36715 115 ft 114 kts 58°
2026-05-06 21:09 55.95408 -3.36041 112 ft 47 kts 58°
2026-05-06 21:09 55.95528 -3.35693 114 ft 27 kts 58°
2026-05-06 21:09 55.95546 -3.35512 116 ft 9 kts 122°
2026-05-06 21:09 55.95509 -3.35452 117 ft 7 kts 144°
2026-05-06 21:10 55.95467 -3.35409 117 ft 7 kts 158°
2026-05-06 21:10 55.95421 -3.35449 116 ft 11 kts 225°
2026-05-06 21:10 55.95365 -3.35598 120 ft 19 kts 237°
2026-05-06 21:10 55.95283 -3.35836 116 ft 22 kts 239°
2026-05-06 21:11 55.95190 -3.35960 119 ft 18 kts 168°
2026-05-06 21:11 55.95098 -3.35823 117 ft 15 kts 144°
2026-05-06 21:11 55.95061 -3.35810 118 ft 4 kts 176°
2026-05-06 21:11 55.95018 -3.35829 119 ft 9 kts 202°
2026-05-06 21:12 55.94952 -3.35879 118 ft 10 kts 191°
2026-05-06 21:12 55.94899 -3.35903 116 ft 7 kts 231°
2026-05-06 21:12 55.94884 -3.35953 116 ft 1 kts 241°
2026-05-06 21:12 55.94880 -3.35964 116 ft 0 kts 240°